Terug naar catalogus

STARLINK-5820

ActiefCommunicatieVLEO
NORAD 55781·PAYLOAD·🇺🇸 United States

Gelanceerd Mar 3, 2023 vanaf Vandenberg Space Force Base

Loading…

Volgende Passages (komende 24 uur)

TLE

VersSource: CelesTrak SupGP

Epoch: Sep 15, 2026, 02:42 UTC

1 55781C 23028AS  26258.11298611 -.00020138  00000+0 -16877-2 0  2587
2 55781  69.9998 106.7940 0002752 271.1868 289.8859 14.98340652    16

Volg STARLINK-5820 in realtime met AllMySat

Download on the App Store